Probability
0 1 2 3 3 3 2 2 2 1 1 1 1 2 3 1 0 0 0 0 0 1 1 1 1 3 4 4 4 3 3 3 5 7 7 6 5 2 1 0 0 0 0
1 1 2 2 2 2 3 3 3 2 2 2 2 3 3 2 1 0 0 0 0 0 0 1 2 3 3 4 3 3 3 3 4 6 7 5 4 3 2 1 0 0 0
0 1 1 1 1 1 2 3 3 3 3 2 3 3 3 2 1 0 0 0 0 0 0 1 2 3 3 3 3 3 3 3 3 4 4 3 2 2 2 2 1 0 0
1 0 1 1 1 1 1 2 3 3 3 2 3 3 2 1 0 0 0 0 0 0 1 1 3 3 3 3 3 3 3 3 3 3 3 2 1 1 2 2 1 0 0
1 0 1 2 4 3 2 2 3 3 3 3 3 3 1 0 0 0 0 0 0 0 1 2 3 3 3 3 3 3 3 3 3 3 3 3 1 1 2 2 2 1 1
2 2 3 4 6 4 2 2 3 3 3 3 3 3 1 0 0 0 0 0 0 0 1 1 3 3 3 3 3 3 3 3 3 3 3 3 2 2 2 3 3 3 2
5 5 6 8 7 5 3 3 3 3 3 2 3 3 2 1 0 0 0 0 0 0 0 1 2 3 3 3 3 3 3 3 3 3 3 3 3 2 2 4 5 4 3
6 7 9 11 10 6 4 3 3 2 2 1 2 3 2 1 0 1 1 1 1 0 0 1 2 3 3 3 3 3 3 3 2 2 2 3 3 2 4 6 5 3 1
4 6 8 10 10 9 6 4 2 1 1 1 2 3 2 1 0 0 1 2 1 0 0 1 3 3 3 3 3 4 4 3 2 1 2 3 4 4 5 6 5 2 1
2 4 7 8 9 9 7 6 4 2 1 1 2 4 3 1 1 1 2 3 4 3 2 3 4 4 4 3 4 5 6 4 2 2 3 4 5 5 5 6 5 3 2
1 2 4 5 6 6 7 8 7 5 3 2 2 3 3 2 2 2 3 6 8 7 6 6 6 6 5 4 5 5 5 4 3 3 4 5 6 5 4 5 5 4 3
0 1 2 2 2 3 5 8 8 7 5 4 2 2 1 1 2 2 4 7 9 8 7 7 7 6 5 5 7 7 5 3 3 3 4 6 7 6 5 5 5 4 4
2 2 2 2 2 3 5 7 7 6 5 4 3 1 1 1 2 2 4 7 7 6 5 5 5 4 4 5 7 7 5 3 2 3 4 8 11 10 8 7 6 5 4
5 5 7 8 7 5 6 7 7 6 5 5 4 4 3 5 4 4 5 6 5 4 3 3 2 1 2 4 5 5 6 5 3 3 5 9 13 13 10 9 8 6 5
8 9 12 14 12 10 8 8 7 7 7 7 7 7 8 8 7 8 9 7 5 4 3 3 2 1 1 2 3 5 6 6 5 4 5 8 11 13 13 12 10 8 7
10 12 14 15 14 13 11 9 7 7 7 8 10 12 11 10 10 10 10 8 5 5 5 4 2 1 1 1 1 3 5 6 7 7 7 8 9 12 13 13 11 10 9
11 12 14 14 13 13 12 10 7 6 6 7 11 15 14 11 11 10 9 7 6 6 6 5 3 2 1 0 0 1 3 5 7 10 10 9 8 9 11 11 11 10 10
12 12 13 13 13 12 12 11 7 5 5 7 11 16 16 13 11 10 9 8 8 8 8 6 5 3 2 2 1 1 2 4 8 10 10 9 7 8 9 9 9 9 9
15 15 15 15 15 14 13 12 9 7 7 8 12 17 17 15 13 11 11 11 10 9 9 8 6 6 6 6 4 2 2 6 8 9 9 8 8 9 9 10 9 8 7
19 18 16 15 15 14 12 13 12 10 10 12 15 18 16 13 13 12 12 12 11 10 10 9 9 9 9 8 5 3 3 6 9 10 10 9 9 10 11 12 11 9 7
17 17 15 14 14 12 12 14 14 11 10 12 16 16 12 10 11 12 13 14 12 11 10 10 11 10 10 9 7 5 4 4 7 10 12 11 11 12 14 15 14 12 10
12 14 15 14 13 12 13 15 15 13 11 13 14 14 12 9 10 11 14 13 11 10 10 11 11 11 10 9 9 8 4 3 4 7 8 10 12 14 16 15 15 14 12
11 14 16 17 15 14 14 14 14 13 12 12 14 14 12 10 9 11 12 10 7 7 9 11 12 13 11 10 10 11 9 6 7 6 6 9 13 14 14 13 13 14 13
12 15 20 22 19 16 15 13 12 12 11 10 11 12 11 10 10 11 11 9 6 5 7 9 12 15 15 12 11 13 13 12 11 9 7 8 11 13 12 11 11 12 14
14 17 24 26 23 21 19 16 14 12 11 9 9 9 9 9 10 12 13 12 10 8 7 7 11 15 17 15 15 16 16 15 13 9 8 9 11 13 14 13 12 13 14
14 18 24 27 25 24 22 19 17 16 13 10 9 10 9 8 10 14 16 16 14 11 9 9 11 13 14 16 17 18 17 16 13 9 7 9 12 14 15 15 14 14 15
Wind_Speed
9 10 10 9 8 7 7 7 7 8 8 8 7 7 7 7 7 7 7 7 7 7 7 7 7 7 7 7 7 7 8 8 7 8 9 8 8 8 8 7 6 6 9
11 11 11 10 8 7 7 7 8 8 8 8 7 7 7 7 6 7 7 7 7 6 6 7 7 7 7 7 7 7 7 8 8 8 9 8 8 8 8 8 6 5 9
12 11 11 9 8 8 8 7 8 8 8 8 8 7 7 6 6 6 6 6 6 6 6 6 7 7 8 7 7 7 8 8 8 8 8 6 7 9 8 8 8 9 10
13 11 11 10 9 8 8 7 7 8 8 8 8 7 7 6 6 6 6 6 6 6 6 7 7 7 8 7 7 8 7 8 9 9 6 5 5 10 10 9 9 9 9
12 12 11 10 10 8 6 6 8 8 8 8 8 7 6 6 6 5 5 4 4 5 6 6 7 8 8 8 8 8 8 9 10 9 5 4 3 10 11 10 10 10 9
12 12 12 11 10 8 8 8 9 8 8 8 7 7 6 6 5 4 4 3 3 4 6 7 8 9 9 9 9 9 9 10 9 6 5 4 4 10 12 11 10 10 10
11 11 12 12 10 9 9 10 9 8 8 8 7 6 6 5 5 4 3 2 2 4 5 6 8 9 8 9 9 9 9 10 7 4 3 3 5 11 12 11 10 9 10
11 11 11 12 10 9 10 9 9 8 7 7 6 5 5 5 4 4 3 2 3 4 5 6 7 7 8 8 9 9 8 9 6 5 4 4 7 10 11 11 10 9 9
11 11 9 9 9 9 9 9 9 8 7 6 5 5 4 4 4 3 3 2 3 4 5 5 5 6 6 7 8 9 8 8 4 3 5 4 8 10 11 11 10 10 9
9 9 8 8 7 7 8 9 9 8 7 6 5 4 4 4 4 4 3 3 3 4 5 5 5 5 5 6 7 8 8 7 4 4 3 4 8 10 11 10 10 10 9
7 6 6 7 6 5 6 9 8 8 6 5 5 5 4 2 3 3 3 4 4 4 4 4 5 5 5 6 8 8 7 4 4 2 2 7 9 9 10 10 9 9 9
6 6 6 6 5 4 3 6 4 4 4 3 2 2 2 1 1 2 5 5 5 4 5 5 5 6 5 3 5 7 4 5 3 3 3 9 10 10 10 10 9 9 8
6 5 7 6 5 3 3 3 2 1 2 2 2 2 1 1 1 2 2 3 3 4 2 2 3 3 2 2 2 3 3 2 2 2 5 10 10 10 10 9 9 9 9
6 6 7 7 5 4 4 2 2 2 2 2 2 2 2 1 1 1 1 0 1 1 1 1 1 2 1 2 3 2 2 1 2 2 5 10 10 10 10 10 9 8 8
6 6 8 6 5 4 3 2 2 2 2 3 2 2 2 1 1 1 1 0 0 1 1 1 0 0 1 1 1 2 2 2 3 3 3 8 10 10 10 10 9 9 9
6 6 7 6 5 4 3 1 1 1 2 2 2 3 2 1 1 1 1 0 0 0 1 1 1 1 0 0 1 1 1 2 3 4 4 5 8 9 9 9 9 9 9
6 6 5 6 6 4 2 1 1 1 2 2 2 3 2 2 1 1 0 0 0 0 0 1 1 1 1 1 1 1 1 2 3 4 4 4 4 7 8 8 8 7 8
7 6 3 4 6 4 2 1 1 1 2 2 2 2 2 1 1 1 1 1 0 0 0 1 0 0 0 0 1 1 2 2 3 3 4 4 4 4 6 9 8 7 7
7 6 4 4 4 3 2 1 1 1 2 2 2 2 2 2 2 1 1 1 1 1 1 1 1 0 0 0 1 2 1 2 2 3 3 4 4 4 5 7 8 8 8
8 6 5 4 3 2 2 1 1 1 2 1 2 2 2 1 2 1 0 1 1 1 2 2 1 0 0 1 2 1 1 1 2 2 3 2 3 4 5 5 5 5 7
7 6 5 4 3 1 1 1 1 1 1 1 2 2 2 2 2 2 2 1 1 2 2 2 1 1 1 1 1 1 2 2 2 2 2 1 2 2 3 5 4 3 4
7 7 5 4 3 2 1 0 0 1 1 2 2 2 2 1 2 1 1 1 1 1 1 2 2 2 1 0 1 1 1 1 1 2 2 2 2 2 2 3 4 4 3
8 7 5 4 4 2 2 1 1 1 1 1 1 2 2 1 2 2 3 2 2 1 1 1 1 2 2 1 1 0 1 0 1 1 2 2 2 1 1 2 3 4 4
8 7 6 5 4 3 2 1 1 1 1 1 1 2 2 1 1 1 2 2 2 2 2 2 2 2 2 2 1 1 1 0 1 1 1 1 2 2 1 2 3 3 3
8 8 7 5 4 3 2 1 0 1 1 1 1 1 1 1 1 1 2 2 2 2 2 3 2 2 2 2 2 2 1 1 1 1 1 1 1 2 2 2 1 2 3
8 8 7 6 4 4 2 2 1 1 1 1 1 1 1 1 1 2 1 1 1 1 1 1 1 2 2 3 2 2 1 1 1 1 1 2 1 1 2 2 2 2 2
Wind_Direction
89 95 99 93 88 89 95 100 104 106 109 112 114 114 118 122 121 119 126 124 130 135 143 149 148 152 150 145 140 137 137 136 133 134 137 137 140 144 148 151 157 147 140
98 99 100 94 90 89 94 102 106 105 108 111 113 116 119 124 130 133 134 136 138 145 151 156 157 157 159 159 154 150 150 149 149 153 154 155 159 160 162 166 162 147 146
104 105 101 93 90 86 90 99 107 109 113 116 117 119 121 123 128 135 143 145 148 156 160 160 159 161 165 166 164 162 162 162 163 169 174 174 172 170 169 168 162 157 156
104 101 98 96 93 90 89 99 110 114 117 119 121 118 120 121 126 134 140 150 161 168 169 168 167 168 169 171 172 171 174 179 184 190 195 190 180 170 171 171 167 165 163
102 102 104 103 97 93 92 108 114 115 117 119 122 119 116 115 117 119 130 144 160 173 173 170 171 175 174 176 181 186 193 199 202 209 205 187 171 164 169 171 172 169 167
109 107 109 110 103 93 87 106 108 112 115 115 118 120 119 117 119 118 122 131 155 176 181 181 183 177 180 183 188 194 201 209 212 211 202 183 162 165 171 174 175 177 176
105 109 115 117 111 99 91 96 100 103 107 111 112 113 114 113 113 110 107 106 126 151 163 172 176 176 182 188 192 201 207 215 218 198 179 170 166 170 174 175 179 182 185
108 111 118 123 118 111 107 103 103 106 105 105 110 111 111 109 112 113 107 92 114 139 154 162 169 179 187 194 199 205 216 230 209 183 172 169 170 172 174 176 179 183 184
106 112 125 130 130 127 119 114 112 113 116 118 118 123 127 130 130 126 113 95 114 133 145 154 165 177 193 203 208 212 217 226 217 189 180 165 166 170 172 176 180 183 184
99 112 125 127 133 140 134 131 132 132 134 137 140 147 153 162 160 158 140 127 121 129 141 154 163 175 188 201 211 217 219 231 206 193 166 162 164 169 171 174 177 182 187
92 98 107 109 113 125 133 136 149 147 149 154 163 177 184 184 177 170 146 146 153 155 161 168 176 185 196 207 216 222 226 223 192 166 151 154 162 167 169 172 177 179 182
104 104 95 91 95 105 106 123 144 142 145 160 141 158 169 172 115 116 139 158 171 185 191 191 198 202 212 209 211 218 223 212 187 158 156 161 169 169 169 173 178 181 183
112 100 100 94 89 84 78 102 99 104 121 125 109 110 111 85 91 101 136 168 187 197 197 177 205 213 200 189 202 198 207 214 158 160 162 164 169 172 173 175 182 188 190
108 100 92 90 80 65 57 63 91 93 105 90 92 77 76 70 40 76 87 99 189 166 158 152 173 199 189 194 201 194 200 196 136 143 158 163 170 175 179 183 188 192 195
111 105 96 92 86 77 63 19 68 66 81 88 82 61 66 72 33 43 52 53 270 140 137 116 95 210 203 214 218 167 184 147 129 126 149 165 170 175 181 188 194 199 200
112 103 107 107 103 95 90 51 32 72 89 80 78 59 41 48 50 26 55 30 356 51 118 146 165 202 288 235 220 179 139 125 124 138 147 162 168 173 179 186 194 199 199
114 99 106 119 111 106 106 133 99 67 86 82 80 83 47 13 44 49 7 113 51 352 170 190 186 198 187 199 186 179 140 122 142 144 144 157 160 171 176 179 182 185 191
106 99 92 100 109 114 104 48 39 60 72 72 67 76 69 25 19 36 356 8 352 320 258 224 170 259 98 207 210 210 157 155 159 152 148 162 160 167 179 183 187 190 194
107 106 99 83 98 113 117 120 105 71 70 67 67 51 40 40 20 60 12 354 329 345 311 312 95 310 240 244 237 194 166 167 172 159 157 160 159 164 165 178 188 195 194
114 110 104 94 93 109 123 110 74 83 85 81 75 68 42 27 26 351 92 355 357 26 9 16 352 335 282 273 268 159 170 181 176 160 182 162 169 172 165 165 176 197 197
117 115 112 109 102 92 84 122 139 129 123 111 107 85 65 21 7 358 1 6 26 40 1 353 328 292 263 279 288 241 201 196 191 173 166 162 159 174 161 157 164 172 183
122 121 122 121 124 132 124 118 140 119 128 98 77 90 76 41 358 10 24 356 23 54 359 347 333 324 303 281 267 273 223 200 243 177 160 172 180 183 164 159 154 160 173
133 137 139 136 132 136 130 134 107 112 78 83 101 93 76 52 32 10 20 3 358 5 23 333 343 314 310 297 281 306 298 265 265 178 190 168 167 160 163 151 161 162 173
142 140 132 134 135 135 132 94 98 122 113 98 103 101 105 76 48 35 25 11 3 9 28 355 21 333 328 309 315 308 264 19 310 303 266 181 184 173 186 188 169 159 158
149 145 139 134 133 135 141 134 136 75 107 115 108 114 130 134 96 45 47 24 12 13 26 12 25 2 348 338 325 319 321 312 294 251 283 274 231 192 179 174 168 161 164
148 144 141 138 139 145 154 148 138 96 77 71 82 110 142 108 81 61 62 25 21 4 20 24 10 2 350 347 336 338 336 322 303 281 262 276 257 213 181 166 176 169 178